Home > Weather > Vancouver > Past weeks

Flag for USA Past Weather in Vancouver, Washington, USA — Yesterday and Last 2 Weeks

Now
73 °F

Clear.


Feels Like: 77 °F
Forecast: 62 / 92 °F
Wind: 5 mph from Northwest

Location: Vancouver - Pearson Airpark

Current Time: Aug 25, 2016 at 1:11:13 AM

Latest Report: Aug 24, 2016 at 11:53 PM


Visibility: 10 mi

Pressure: 30.06 "Hg

Humidity: 43%

Dew Point: 49 °F

Location of VancouverLocation

Past Weather in Vancouver — Graph

°F

Vancouver Temperature Yesterday

Maximum temperature yesterday: 90 °F (at 3:53 PM)
Minimum temperature yesterday: 57 °F (at 5:53 AM)
Average temperature yesterday: 74 °F

High & Low Weather Summary for the Past Weeks

 TemperatureHumidityPressure
High99 °F (Aug 19, 3:53 PM)93% (Aug 10, 3:53 AM)30.18 "Hg (Aug 10, 3:53 AM)
Low50 °F (Aug 22, 6:53 AM)14% (Aug 20, 3:53 PM)29.76 "Hg (Aug 20, 6:53 PM)
Average72 °F57%30.00 "Hg
* Reported Aug 9 11:53 PM — Aug 24 11:53 PM, Vancouver, Weather by CustomWeather, © 2016

Note: Actual official high and low records may vary slightly from our data, if they occured in-between our weather recording intervals... More about our weather records

Advertising

Vancouver Weather History for the Previous 24 Hours

Scroll right to see more
 ConditionsComfort  
Time TempWeatherWind HumidityBarometerVisibility
11:53 PM
Wed, Aug 24
73 °FClear.5 mph43%30.06 "Hg10 mi
10:53 PM74 °FClear.6 mph41%30.06 "Hg10 mi
9:53 PM77 °FClear.5 mph36%30.06 "Hg10 mi
8:53 PM83 °FSunny.7 mph27%30.05 "Hg10 mi
7:53 PM86 °FSunny.7 mph25%30.03 "Hg10 mi
6:53 PM88 °FSunny.8 mph25%30.04 "Hg10 mi
5:53 PM90 °FSunny.10 mph23%30.04 "Hg10 mi
4:53 PM90 °FSunny.12 mph24%30.05 "Hg10 mi
3:53 PM90 °FSunny.10 mph22%30.06 "Hg10 mi
2:53 PM89 °FSunny.10 mph23%30.08 "Hg10 mi
1:53 PM88 °FSunny.9 mph27%30.10 "Hg10 mi
12:53 PM84 °FSunny.8 mph35%30.12 "Hg10 mi
11:53 AM78 °FSunny.7 mph42%30.15 "Hg10 mi
10:53 AM74 °FSunny.7 mph46%30.16 "Hg10 mi
9:53 AM71 °FSunny.6 mph51%30.17 "Hg10 mi
8:53 AM67 °FSunny.6 mph59%30.18 "Hg10 mi
7:53 AM61 °FSunny.3 mph72%30.17 "Hg10 mi
6:53 AM57 °FClear.No wind78%30.16 "Hg10 mi
5:53 AM57 °FClear.No wind81%30.15 "Hg10 mi
4:53 AM58 °FClear.No wind78%30.14 "Hg10 mi
3:53 AM58 °FClear.No wind78%30.14 "Hg10 mi
2:53 AM61 °FClear.No wind70%30.13 "Hg10 mi
1:53 AM63 °FClear.No wind65%30.13 "Hg10 mi
Weather by CustomWeather, © 2016

See weather overviewHow to use our weather pages